Weather History for Big Bear City, CA

Change the Weather History Date:

Wednesday, January 29, 2014

  Actual Average (KBUO) Record (KBUO)
Temperature  
Mean Temperature 43 °F -  
Max Temperature 60 °F 59 °F 127 °F (1998)
Min Temperature 26 °F 40 °F 39 °F (1999)
Degree Days  
Heating Degree Days 22    
Moisture  
Dew Point 26 °F    
Average Humidity 57    
Maximum Humidity 80    
Minimum Humidity 31    
Precipitation  
Precipitation 0.00 in - - ()
Sea Level Pressure  
Sea Level Pressure 30.22 in    
Wind  
Wind Speed 3 mph (WSW)    
Max Wind Speed 16 mph    
Max Gust Speed 22 mph    
Visibility 10 miles    
Events      
Averages and records for this station are not official NWS values.
T = Trace of Precipitation, MM = Missing Value Source: NWS Daily Summary

Daily Weather History Graph

Daily Weather History Graph

Search for Another Location

Airport:

Trip Planner

Search our weather history database for the weather conditions in past years. The results will help you decide how hot, cold, wet, or windy it might be!

Date:

Astronomy

Jan. 29, 2014 Rise Set
Actual Time 6:46 AM PST 5:14 PM PST
Civil Twilight 6:20 AM PST 5:41 PM PST
Nautical Twilight 5:50 AM PST 6:11 PM PST
Astronomical Twilight 5:20 AM PST 6:40 PM PST
Moon 5:27 AM PST (1/29) 4:19 PM PST (1/29)
Length of Visible Light 11h 20m
Length of Day
10h 27m
Waning Crescent, 2% of the Moon is Illuminated
Jan 29
Waning Crescent
Jan 30
New
Feb 6
First Quarter
Feb 14
Full
Feb 22
Last Quarter

Hourly Weather History & Observations

Time (PST) Temp. Windchill Dew Point Humidity Pressure Visibility Wind Dir Wind Speed Gust Speed Precip Events Conditions
12:15 AM 28.4 °F - 14.0 °F 55% 30.29 in 10.0 mi Calm Calm - N/A   Clear
12:35 AM 28.4 °F - 14.0 °F 55% 30.29 in 10.0 mi Calm Calm - N/A   Clear
12:55 AM 28.4 °F - 14.0 °F 55% 30.29 in 10.0 mi Calm Calm - N/A   Clear
1:15 AM 28.4 °F - 15.8 °F 59% 30.29 in 10.0 mi Calm Calm - N/A   Clear
1:35 AM 28.4 °F - 17.6 °F 64% 30.28 in 10.0 mi Calm Calm - N/A   Clear
1:55 AM 28.4 °F - 17.6 °F 64% 30.29 in 10.0 mi Calm Calm - N/A   Clear
2:15 AM 28.4 °F - 17.6 °F 64% 30.29 in 10.0 mi Calm Calm - N/A   Clear
2:35 AM 28.4 °F - 19.4 °F 69% 30.28 in 10.0 mi Calm Calm - N/A   Clear
2:55 AM 28.4 °F - 19.4 °F 69% 30.28 in 10.0 mi Calm Calm - N/A   Clear
3:15 AM 28.4 °F - 19.4 °F 69% 30.27 in 10.0 mi Calm Calm - N/A   Clear
3:35 AM 28.4 °F - 19.4 °F 69% 30.27 in 10.0 mi Calm Calm - N/A   Clear
3:55 AM 28.4 °F - 19.4 °F 69% 30.27 in 10.0 mi Calm Calm - N/A   Clear
4:15 AM 26.6 °F - 21.2 °F 80% 30.27 in 10.0 mi Calm Calm - N/A   Clear
4:35 AM 26.6 °F - 21.2 °F 80% 30.27 in 10.0 mi Calm Calm - N/A   Clear
4:55 AM 26.6 °F - 19.4 °F 74% 30.27 in 10.0 mi Calm Calm - N/A   Clear
5:15 AM 26.6 °F - 21.2 °F 80% 30.27 in 10.0 mi Calm Calm - N/A   Clear
5:35 AM 26.6 °F - 21.2 °F 80% 30.27 in 10.0 mi Calm Calm - N/A   Clear
5:55 AM 26.6 °F - 21.2 °F 80% 30.27 in 10.0 mi Calm Calm - N/A   Clear
6:15 AM 26.6 °F - 21.2 °F 80% 30.28 in 10.0 mi Calm Calm - N/A   Clear
6:35 AM 26.6 °F - 21.2 °F 80% 30.28 in 10.0 mi Calm Calm - N/A   Clear
6:55 AM 26.6 °F - 21.2 °F 80% 30.28 in 10.0 mi Calm Calm - N/A   Clear
7:15 AM 26.6 °F - 21.2 °F 80% 30.28 in 10.0 mi Calm Calm - N/A   Clear
7:35 AM 30.2 °F - 23.0 °F 75% 30.28 in 10.0 mi Calm Calm - N/A   Clear
7:55 AM 32.0 °F - 23.0 °F 69% 30.28 in 10.0 mi Calm Calm - N/A   Clear
8:15 AM 33.8 °F 30.8 °F 26.6 °F 75% 30.28 in 10.0 mi West 3.5 mph - N/A   Clear
8:35 AM 37.4 °F - 28.4 °F 70% 30.28 in 10.0 mi Calm Calm - N/A   Clear
8:55 AM 42.8 °F 39.3 °F 28.4 °F 57% 30.28 in 10.0 mi West 5.8 mph - N/A   Clear
9:15 AM 46.4 °F 45.2 °F 30.2 °F 53% 30.28 in 10.0 mi West 3.5 mph - N/A   Clear
9:35 AM 50.0 °F - 30.2 °F 47% 30.27 in 10.0 mi West 4.6 mph - N/A   Clear
9:55 AM 57.2 °F - 28.4 °F 33% 30.28 in 10.0 mi West 8.1 mph - N/A   Clear
10:15 AM 59.0 °F - 28.4 °F 31% 30.27 in 10.0 mi WSW 6.9 mph - N/A   Clear
10:35 AM 59.0 °F - 30.2 °F 34% 30.26 in 10.0 mi West 6.9 mph - N/A   Clear
10:55 AM 59.0 °F - 30.2 °F 34% 30.25 in 10.0 mi West 9.2 mph - N/A   Clear
11:15 AM 59.0 °F - 30.2 °F 34% 30.24 in 10.0 mi WSW 10.4 mph - N/A   Clear
11:35 AM 60.8 °F - 30.2 °F 31% 30.23 in 10.0 mi WSW 8.1 mph 17.3 mph N/A   Clear
11:55 AM 60.8 °F - 30.2 °F 31% 30.23 in 10.0 mi WSW 12.7 mph 19.6 mph N/A   Clear
12:15 PM 59.0 °F - 30.2 °F 34% 30.22 in 10.0 mi West 11.5 mph 19.6 mph N/A   Clear
12:35 PM 59.0 °F - 32.0 °F 36% 30.21 in 10.0 mi West 12.7 mph 17.3 mph N/A   Clear
12:55 PM 59.0 °F - 30.2 °F 34% 30.20 in 10.0 mi West 12.7 mph 19.6 mph N/A   Clear
1:15 PM 59.0 °F - 32.0 °F 36% 30.19 in 10.0 mi WSW 11.5 mph 21.9 mph N/A   Clear
1:35 PM 59.0 °F - 32.0 °F 36% 30.19 in 10.0 mi West 13.8 mph 19.6 mph N/A   Clear
1:55 PM 59.0 °F - 30.2 °F 34% 30.18 in 10.0 mi West 16.1 mph 20.7 mph N/A   Clear
2:15 PM 59.0 °F - 30.2 °F 34% 30.18 in 10.0 mi West 9.2 mph - N/A   Clear
2:35 PM 57.2 °F - 30.2 °F 36% 30.17 in 10.0 mi WSW 11.5 mph 17.3 mph N/A   Clear
2:55 PM 59.0 °F - 30.2 °F 34% 30.17 in 10.0 mi WSW 10.4 mph 16.1 mph N/A   Clear
3:15 PM 57.2 °F - 30.2 °F 36% 30.17 in 10.0 mi WSW 13.8 mph 19.6 mph N/A   Clear
3:35 PM 55.4 °F - 30.2 °F 38% 30.17 in 10.0 mi WSW 9.2 mph 17.3 mph N/A   Clear
3:55 PM 55.4 °F - 30.2 °F 38% 30.16 in 10.0 mi WSW 9.2 mph - N/A   Clear
4:15 PM 55.4 °F - 30.2 °F 38% 30.16 in 10.0 mi SW 8.1 mph - N/A   Clear
4:35 PM 55.4 °F - 30.2 °F 38% 30.16 in 10.0 mi WSW 8.1 mph - N/A   Clear
4:55 PM 53.6 °F - 30.2 °F 41% 30.16 in 10.0 mi WSW 5.8 mph - N/A   Clear
5:15 PM 51.8 °F - 30.2 °F 44% 30.16 in 10.0 mi WSW 5.8 mph - N/A   Clear
5:35 PM 50.0 °F - 32.0 °F 50% 30.16 in 10.0 mi West 5.8 mph - N/A   Clear
5:55 PM 50.0 °F - 32.0 °F 50% 30.16 in 10.0 mi Calm Calm - N/A   Clear
6:15 PM 50.0 °F - 32.0 °F 50% 30.15 in 10.0 mi WSW 4.6 mph - N/A   Clear
6:35 PM 48.2 °F - 32.0 °F 54% 30.16 in 10.0 mi West 5.8 mph - N/A   Clear
6:55 PM 46.4 °F 43.5 °F 32.0 °F 57% 30.15 in 10.0 mi West 5.8 mph - N/A   Clear
7:15 PM 44.6 °F 42.2 °F 32.0 °F 61% 30.15 in 10.0 mi WSW 4.6 mph - N/A   Clear
7:35 PM 41.0 °F 38.0 °F 32.0 °F 70% 30.15 in 10.0 mi WSW 4.6 mph - N/A   Clear
7:55 PM 41.0 °F - 32.0 °F 70% 30.15 in 10.0 mi Calm Calm - N/A   Clear
8:15 PM 41.0 °F 39.0 °F 30.2 °F 65% 30.15 in 10.0 mi West 3.5 mph - N/A   Clear
8:35 PM 39.2 °F 37.0 °F 30.2 °F 70% 30.15 in 10.0 mi WSW 3.5 mph - N/A   Clear
8:55 PM 37.4 °F - 28.4 °F 70% 30.14 in 10.0 mi Calm Calm - N/A   Clear
9:15 PM 37.4 °F 34.9 °F 28.4 °F 70% 30.14 in 10.0 mi WSW 3.5 mph - N/A   Clear
9:35 PM 37.4 °F 34.9 °F 28.4 °F 70% 30.14 in 10.0 mi West 3.5 mph - N/A   Clear
9:55 PM 37.4 °F - 28.4 °F 70% 30.14 in 10.0 mi Calm Calm - N/A   Clear
10:15 PM 37.4 °F - 26.6 °F 65% 30.13 in 10.0 mi Calm Calm - N/A   Clear
10:35 PM 35.6 °F 32.8 °F 26.6 °F 70% 30.13 in 10.0 mi West 3.5 mph - N/A   Clear
10:55 PM 37.4 °F 33.8 °F 26.6 °F 65% 30.12 in 10.0 mi WSW 4.6 mph - N/A   Clear
11:15 PM 39.2 °F 35.9 °F 28.4 °F 65% 30.12 in 10.0 mi WSW 4.6 mph - N/A   Clear
11:35 PM 41.0 °F 39.0 °F 28.4 °F 61% 30.11 in 10.0 mi WSW 3.5 mph - N/A   Clear
11:55 PM 37.4 °F 34.9 °F 28.4 °F 70% 30.10 in 10.0 mi WSW 3.5 mph - N/A   Clear